Change the Weather History Date:

Monday, January 20, 2014

  Actual Average Record
Temperature  
Mean Temperature 57 °F -  
Max Temperature 73 °F 54 °F 82 °F (1986)
Min Temperature 41 °F 31 °F 9 °F (1963)
Degree Days  
Heating Degree Days 8    
Growing Degree Days 7 (Base 50)    
Moisture  
Dew Point 27 °F    
Average Humidity 37    
Maximum Humidity 65    
Minimum Humidity 14    
Precipitation  
Precipitation 0.00 in - - ()
Sea Level Pressure  
Sea Level Pressure 30.02 in    
Wind  
Wind Speed 7 mph (West)    
Max Wind Speed 26 mph    
Max Gust Speed 36 mph    
Visibility 10 miles    
Events      
Averages and records for this station are not official NWS values.
T = Trace of Precipitation, MM = Missing Value Source: NWS Daily Summary

Daily Weather History Graph

Daily Weather History Graph

Search for Another Location

Airport or City:

Trip Planner

Search our weather history database for the weather conditions in past years. The results will help you decide how hot, cold, wet, or windy it might be!

Date:

Astronomy

Jan. 20, 2014 Rise Set
Actual Time 7:32 AM CST 5:55 PM CST
Civil Twilight 7:06 AM CST 6:21 PM CST
Nautical Twilight 6:36 AM CST 6:51 PM CST
Astronomical Twilight 6:07 AM CST 7:20 PM CST
Moon 10:12 PM CST (1/20) 9:50 AM CST (1/20)
Length of Visible Light 11h 15m
Length of Day
10h 22m
Waning Gibbous, 82% of the Moon is Illuminated
Jan 20
Waning Gibbous
Jan 23
Last Quarter
Jan 30
New
Feb 6
First Quarter
Feb 14
Full

Hourly Weather History & Observations

Time (CST) Temp. Windchill Dew Point Humidity Pressure Visibility Wind Dir Wind Speed Gust Speed Precip Events Conditions
12:15 AM 44.8 °F 43.3 °F 25.3 °F 47% 30.07 in 10.0 mi South 3.5 mph - N/A   Clear
12:35 AM 44.1 °F - 25.5 °F 48% 30.06 in 10.0 mi Calm Calm - N/A   Clear
12:55 AM 44.6 °F - 26.1 °F 48% 30.06 in 10.0 mi Calm Calm - N/A   Clear
1:15 AM 45.0 °F - 26.4 °F 48% 30.04 in 10.0 mi Calm Calm - N/A   Clear
1:35 AM 44.6 °F - 26.6 °F 49% 30.03 in 10.0 mi Calm Calm - N/A   Clear
1:55 AM 44.4 °F - 27.0 °F 50% 30.02 in 10.0 mi Calm Calm - N/A   Clear
2:15 AM 43.7 °F 42.1 °F 27.3 °F 53% 30.02 in 10.0 mi South 3.5 mph - N/A   Clear
2:35 AM 43.5 °F 41.9 °F 28.0 °F 54% 30.01 in 10.0 mi South 3.5 mph - N/A   Clear
2:55 AM 43.2 °F - 28.4 °F 56% 30.01 in 10.0 mi Calm Calm - N/A   Clear
3:15 AM 43.0 °F 41.3 °F 28.4 °F 56% 30.00 in 10.0 mi South 3.5 mph - N/A   Clear
3:35 AM 43.3 °F 40.7 °F 28.8 °F 56% 29.99 in 10.0 mi South 4.6 mph - N/A   Clear
3:55 AM 43.7 °F 41.1 °F 29.1 °F 57% 29.99 in 10.0 mi South 4.6 mph - N/A   Clear
4:15 AM 42.1 °F 40.2 °F 29.3 °F 61% 29.99 in 10.0 mi South 3.5 mph - N/A   Clear
4:35 AM 41.9 °F 39.0 °F 29.7 °F 62% 29.98 in 10.0 mi South 4.6 mph - N/A   Clear
4:55 AM 41.9 °F 39.0 °F 29.8 °F 62% 29.97 in 10.0 mi South 4.6 mph - N/A   Clear
5:15 AM 42.8 °F 40.1 °F 29.8 °F 60% 29.97 in 10.0 mi South 4.6 mph - N/A   Clear
5:35 AM 41.7 °F 38.0 °F 30.0 °F 63% 29.96 in 10.0 mi South 5.8 mph - N/A   Clear
5:55 AM 41.0 °F 38.0 °F 30.2 °F 65% 29.96 in 10.0 mi South 4.6 mph - N/A   Clear
6:15 AM 41.4 °F 39.4 °F 30.2 °F 65% 29.96 in 10.0 mi South 3.5 mph - N/A   Clear
6:35 AM 43.3 °F 40.7 °F 30.7 °F 61% 29.97 in 10.0 mi South 4.6 mph - N/A   Clear
6:55 AM 44.8 °F 42.4 °F 31.3 °F 59% 29.96 in 10.0 mi South 4.6 mph - N/A   Clear
7:15 AM 45.3 °F 43.0 °F 31.8 °F 59% 29.96 in 10.0 mi South 4.6 mph - N/A   Clear
7:35 AM 46.0 °F 44.8 °F 32.0 °F 58% 29.96 in 10.0 mi SSW 3.5 mph - N/A   Clear
7:55 AM 47.8 °F - 32.9 °F 56% 29.96 in 10.0 mi South 5.8 mph - N/A   Clear
8:15 AM 48.9 °F - 34.0 °F 56% 29.95 in 10.0 mi SSW 3.5 mph - N/A   Clear
8:35 AM 50.4 °F - 34.9 °F 55% 29.95 in 10.0 mi South 4.6 mph - N/A   Clear
8:55 AM 53.1 °F - 36.5 °F 53% 29.96 in 10.0 mi SW 5.8 mph - N/A   Clear
9:15 AM 56.5 °F - 37.6 °F 49% 29.95 in 10.0 mi SSW 4.6 mph - N/A   Clear
9:35 AM 58.5 °F - 37.8 °F 46% 29.95 in 10.0 mi SSW 9.2 mph 20.7 mph N/A   Clear
9:55 AM 60.4 °F - 37.6 °F 43% 29.95 in 10.0 mi SW 12.7 mph 19.6 mph N/A   Clear
10:15 AM 61.7 °F - 37.4 °F 41% 29.95 in 10.0 mi SW 15.0 mph 20.7 mph N/A   Clear
10:35 AM 63.0 °F - 36.5 °F 37% 29.96 in 10.0 mi SW 18.4 mph 24.2 mph N/A   Clear
10:55 AM 64.8 °F - 34.7 °F 33% 29.94 in 10.0 mi WSW 13.8 mph 24.2 mph N/A   Clear
11:15 AM 66.4 °F - 32.9 °F 29% 29.94 in 10.0 mi SW 20.7 mph 26.5 mph N/A   Clear
11:35 AM 67.3 °F - 32.7 °F 28% 29.94 in 10.0 mi WSW 13.8 mph 21.9 mph N/A   Clear
11:55 AM 68.2 °F - 32.2 °F 26% 29.94 in 10.0 mi WSW 12.7 mph 18.4 mph N/A   Clear
12:15 PM 69.1 °F - 29.3 °F 23% 29.93 in 10.0 mi WSW 16.1 mph - N/A   Clear
12:35 PM 70.0 °F - 29.8 °F 23% 29.92 in 10.0 mi West 16.1 mph - N/A   Clear
12:55 PM 70.0 °F - 30.9 °F 24% 29.91 in 10.0 mi West 10.4 mph 18.4 mph N/A   Clear
1:15 PM 71.1 °F - 30.2 °F 22% 29.90 in 10.0 mi West 16.1 mph 21.9 mph N/A   Clear
1:35 PM 72.0 °F - 29.5 °F 21% 29.90 in 10.0 mi West 10.4 mph - N/A   Clear
1:55 PM 72.7 °F - 26.8 °F 18% 29.89 in 10.0 mi West 16.1 mph - N/A   Clear
2:15 PM 73.6 °F - 24.8 °F 16% 29.89 in 10.0 mi WNW 13.8 mph 21.9 mph N/A   Clear
2:35 PM 72.9 °F - 24.8 °F 17% 29.90 in 10.0 mi WNW 10.4 mph 19.6 mph N/A   Clear
2:55 PM 72.5 °F - 21.4 °F 15% 29.90 in 10.0 mi NNW 15.0 mph 18.4 mph N/A   Clear
3:15 PM 72.0 °F - 20.5 °F 14% 29.92 in 10.0 mi NW 12.7 mph 18.4 mph N/A   Clear
3:35 PM 71.6 °F - 19.0 °F 14% 29.93 in 10.0 mi NNW 15.0 mph 19.6 mph N/A   Clear
3:55 PM 70.7 °F - 18.9 °F 14% 29.94 in 10.0 mi NW 12.7 mph - N/A   Clear
4:15 PM 70.5 °F - 18.5 °F 14% 29.94 in 10.0 mi NW 15.0 mph - N/A   Clear
4:35 PM 70.2 °F - 18.5 °F 14% 29.96 in 10.0 mi NNW 15.0 mph 20.7 mph N/A   Clear
4:55 PM 69.1 °F - 17.8 °F 14% 29.97 in 10.0 mi North 13.8 mph 20.7 mph N/A   Clear
5:15 PM 67.8 °F - 19.4 °F 16% 29.99 in 10.0 mi NNW 17.3 mph 20.7 mph N/A   Clear
5:35 PM 66.2 °F - 20.7 °F 18% 30.00 in 10.0 mi NNW 12.7 mph - N/A   Clear
5:55 PM 64.4 °F - 21.7 °F 20% 30.01 in 10.0 mi NNW 10.4 mph - N/A   Clear
6:15 PM 61.5 °F - 22.6 °F 23% 30.03 in 10.0 mi NNW 8.1 mph - N/A   Scattered Clouds
6:35 PM 59.5 °F - 23.0 °F 25% 30.05 in 10.0 mi NNW 8.1 mph - N/A   Clear
6:55 PM 59.0 °F - 23.0 °F 25% 30.06 in 10.0 mi NNW 6.9 mph - N/A   Clear
7:15 PM 58.3 °F - 23.2 °F 26% 30.07 in 10.0 mi NNW 10.4 mph - N/A   Clear
7:35 PM 61.3 °F - 23.0 °F 23% 30.10 in 10.0 mi North 26.5 mph 35.7 mph N/A   Clear
7:55 PM 61.0 °F - 23.4 °F 24% 30.12 in 10.0 mi North 23.0 mph 31.1 mph N/A   Clear
8:15 PM 59.0 °F - 24.4 °F 27% 30.14 in 10.0 mi North 25.3 mph 33.4 mph N/A   Clear
8:35 PM 57.7 °F - 24.8 °F 28% 30.16 in 10.0 mi North 21.9 mph 28.8 mph N/A   Clear
8:55 PM 57.2 °F - 25.2 °F 29% 30.19 in 10.0 mi North 18.4 mph 25.3 mph N/A   Clear
9:15 PM 56.3 °F - 24.8 °F 30% 30.20 in 10.0 mi North 16.1 mph 23.0 mph N/A   Clear
9:35 PM 55.6 °F - 24.6 °F 30% 30.21 in 10.0 mi North 16.1 mph 21.9 mph N/A   Clear
9:55 PM 55.2 °F - 23.2 °F 29% 30.22 in 10.0 mi North 17.3 mph 23.0 mph N/A   Clear
10:15 PM 54.1 °F - 22.1 °F 29% 30.23 in 10.0 mi North 13.8 mph 21.9 mph N/A   Clear
10:35 PM 53.8 °F - 21.2 °F 28% 30.25 in 10.0 mi North 18.4 mph 23.0 mph N/A   Clear
10:55 PM 53.2 °F - 20.8 °F 28% 30.26 in 10.0 mi North 18.4 mph 29.9 mph N/A   Clear
11:15 PM 52.7 °F - 21.0 °F 29% 30.27 in 10.0 mi North 17.3 mph 23.0 mph N/A   Clear
11:35 PM 52.0 °F - 20.8 °F 30% 30.28 in 10.0 mi North 17.3 mph 24.2 mph N/A   Clear
11:55 PM 51.6 °F - 20.5 °F 29% 30.28 in 10.0 mi North 13.8 mph 25.3 mph N/A   Clear